When you browse on this site, cookies collect data to enhance your experience and personalize the content and advertising you see.
Visit our Privacy Policy to learn more. By continuing to use the site, you agree to this use of cookies and data.

Stündliche Wetter Kamarang

Heute, 7 Juli, Dienstag

Zeit Temperatur Niederschläge Wind Luftdruck Luftfeuchtigkeit
00:00 +20°C° 0.2 mm 0 m/S 713 mmHg 98%
01:00 +20°C° 0.2 mm 0 m/S 712 mmHg 99%
02:00 +20°C° 0.2 mm 0 m/S 712 mmHg 99%
03:00 +20°C° 0.1 mm 0 m/S 712 mmHg 99%
04:00 +20°C° 0.1 mm 0 m/S 712 mmHg 99%
05:00 +20°C° 0.1 mm 0 m/S 712 mmHg 99%
06:00 +20°C° 0 mm 0 m/S 712 mmHg 98%
07:00 +21°C° 0 mm 0 m/S 713 mmHg 96%
08:00 +22°C° 0 mm 0 m/S 713 mmHg 95%
09:00 +24°C° 0 mm 0 m/S 713 mmHg 83%
10:00 +26°C° 0 mm 0 m/S 713 mmHg 72%
11:00 +29°C° 0 mm 0 m/S 714 mmHg 60%
12:00 +31°C° 0.1 mm 1 m/S 713 mmHg 58%
13:00 +32°C° 0.1 mm 1 m/S 712 mmHg 55%
14:00 +32°C° 0.1 mm 1 m/S 712 mmHg 52%
15:00 +31°C° 0.2 mm 1 m/S 711 mmHg 60%
16:00 +29°C° 0.2 mm 1 m/S 711 mmHg 68%
17:00 +28°C° 0.2 mm 2 m/S 710 mmHg 75%
18:00 +26°C° 0.1 mm 1 m/S 711 mmHg 82%
19:00 +25°C° 0.1 mm 1 m/S 712 mmHg 89%
20:00 +21°C° 0.1 mm 0 m/S 712 mmHg 95%
21:00 +21°C° 0.2 mm 0 m/S 712 mmHg 96%
22:00 +20°C° 0.2 mm 0 m/S 713 mmHg 97%
23:00 +20°C° 0.2 mm 0 m/S 713 mmHg 98%

Morgen, 8 Juli, Mittwoch

Zeit Temperatur Niederschläge Wind Luftdruck Luftfeuchtigkeit
00:00 +20°C° 0.1 mm 0 m/S 713 mmHg 99%
01:00 +20°C° 0.1 mm 0 m/S 712 mmHg 99%
02:00 +20°C° 0.1 mm 0 m/S 712 mmHg 99%
03:00 +20°C° 0 mm 0 m/S 712 mmHg 99%
04:00 +20°C° 0 mm 0 m/S 712 mmHg 99%
05:00 +20°C° 0 mm 0 m/S 712 mmHg 99%
06:00 +21°C° 0 mm 0 m/S 712 mmHg 97%
07:00 +22°C° 0 mm 0 m/S 713 mmHg 95%
08:00 +22°C° 0 mm 0 m/S 713 mmHg 93%
09:00 +25°C° 0 mm 0 m/S 713 mmHg 78%
10:00 +27°C° 0 mm 0 m/S 713 mmHg 63%
11:00 +31°C° 0 mm 1 m/S 714 mmHg 48%
12:00 +31°C° 0 mm 1 m/S 713 mmHg 47%
13:00 +32°C° 0 mm 2 m/S 712 mmHg 45%
14:00 +32°C° 0 mm 2 m/S 712 mmHg 44%
15:00 +31°C° 0 mm 2 m/S 711 mmHg 49%
16:00 +30°C° 0 mm 2 m/S 711 mmHg 54%
17:00 +29°C° 0 mm 2 m/S 711 mmHg 59%
18:00 +27°C° 0.2 mm 2 m/S 711 mmHg 71%
19:00 +25°C° 0.2 mm 1 m/S 711 mmHg 82%
20:00 +23°C° 0.2 mm 1 m/S 712 mmHg 94%
21:00 +23°C° 0 mm 1 m/S 712 mmHg 96%
22:00 +20°C° 0 mm 0 m/S 712 mmHg 97%
23:00 +20°C° 0 mm 0 m/S 712 mmHg 99%

übermorgen, 9 Juli, Donnerstag

Zeit Temperatur Niederschläge Wind Luftdruck Luftfeuchtigkeit
00:00 +20°C° 0.1 mm 0 m/S 712 mmHg 99%
01:00 +20°C° 0.1 mm 0 m/S 712 mmHg 99%
02:00 +20°C° 0.1 mm 0 m/S 711 mmHg 99%
03:00 +20°C° 0.1 mm 0 m/S 711 mmHg 99%
04:00 +19°C° 0.1 mm 0 m/S 711 mmHg 99%
05:00 +19°C° 0.1 mm 0 m/S 711 mmHg 99%
06:00 +20°C° 0 mm 0 m/S 712 mmHg 96%
07:00 +21°C° 0 mm 0 m/S 713 mmHg 93%
08:00 +23°C° 0 mm 0 m/S 713 mmHg 90%
09:00 +25°C° 0 mm 0 m/S 713 mmHg 76%
10:00 +27°C° 0 mm 0 m/S 713 mmHg 63%
11:00 +32°C° 0 mm 1 m/S 713 mmHg 49%
12:00 +32°C° 0.1 mm 1 m/S 713 mmHg 49%
13:00 +32°C° 0.1 mm 1 m/S 712 mmHg 49%
14:00 +32°C° 0.1 mm 1 m/S 711 mmHg 50%
15:00 +30°C° 0.3 mm 1 m/S 711 mmHg 60%
16:00 +29°C° 0.3 mm 1 m/S 711 mmHg 69%
17:00 +28°C° 0.3 mm 1 m/S 710 mmHg 79%
18:00 +26°C° 0.7 mm 1 m/S 711 mmHg 85%
19:00 +25°C° 0.7 mm 1 m/S 711 mmHg 90%
20:00 +23°C° 0.7 mm 1 m/S 712 mmHg 96%
21:00 +21°C° 0.1 mm 0 m/S 712 mmHg 97%
22:00 +21°C° 0.1 mm 0 m/S 712 mmHg 97%
23:00 +20°C° 0.1 mm 0 m/S 713 mmHg 98%

10 Juli, Freitag

Zeit Temperatur Niederschläge Wind Luftdruck Luftfeuchtigkeit
00:00 +20°C° 0 mm 0 m/S 712 mmHg 98%
01:00 +20°C° 0 mm 0 m/S 712 mmHg 98%
02:00 +20°C° 0 mm 0 m/S 712 mmHg 99%
03:00 +20°C° 0 mm 0 m/S 712 mmHg 99%
04:00 +20°C° 0 mm 0 m/S 712 mmHg 99%
05:00 +20°C° 0 mm 0 m/S 712 mmHg 99%
06:00 +21°C° 0 mm 0 m/S 712 mmHg 96%
07:00 +22°C° 0 mm 0 m/S 713 mmHg 93%
08:00 +23°C° 0 mm 0 m/S 713 mmHg 90%
09:00 +27°C° 0 mm 1 m/S 713 mmHg 77%
10:00 +30°C° 0 mm 1 m/S 713 mmHg 64%
11:00 +32°C° 0 mm 1 m/S 713 mmHg 50%
12:00 +33°C° 0.1 mm 1 m/S 713 mmHg 48%
13:00 +33°C° 0.1 mm 1 m/S 712 mmHg 46%
14:00 +34°C° 0.1 mm 1 m/S 712 mmHg 45%
15:00 +32°C° 0.6 mm 1 m/S 711 mmHg 58%
16:00 +29°C° 0.6 mm 1 m/S 711 mmHg 71%
17:00 +27°C° 0.6 mm 1 m/S 710 mmHg 85%
18:00 +26°C° 0.9 mm 1 m/S 711 mmHg 89%
19:00 +25°C° 0.9 mm 1 m/S 711 mmHg 93%
20:00 +21°C° 0.9 mm 0 m/S 712 mmHg 97%
21:00 +21°C° 1.4 mm 0 m/S 712 mmHg 97%
22:00 +21°C° 1.4 mm 0 m/S 713 mmHg 98%
23:00 +21°C° 1.4 mm 0 m/S 713 mmHg 98%

11 Juli, Samstag

Zeit Temperatur Niederschläge Wind Luftdruck Luftfeuchtigkeit
00:00 +21°C° 1.4 mm 0 m/S 713 mmHg 98%
01:00 +21°C° 1.4 mm 0 m/S 712 mmHg 98%
02:00 +21°C° 1.4 mm 0 m/S 712 mmHg 98%
03:00 +21°C° 0.5 mm 0 m/S 712 mmHg 98%
04:00 +21°C° 0.5 mm 0 m/S 712 mmHg 98%
05:00 +20°C° 0.5 mm 0 m/S 711 mmHg 99%
06:00 +21°C° 0.2 mm 0 m/S 712 mmHg 97%
07:00 +22°C° 0.2 mm 0 m/S 712 mmHg 95%
08:00 +22°C° 0.2 mm 0 m/S 713 mmHg 93%
09:00 +25°C° 0.2 mm 0 m/S 713 mmHg 82%
10:00 +27°C° 0.2 mm 0 m/S 713 mmHg 70%
11:00 +31°C° 0.2 mm 1 m/S 713 mmHg 59%
12:00 +30°C° 1.4 mm 1 m/S 713 mmHg 68%
13:00 +29°C° 1.4 mm 1 m/S 712 mmHg 78%
14:00 +28°C° 1.4 mm 1 m/S 711 mmHg 87%
15:00 +28°C° 1.8 mm 1 m/S 711 mmHg 89%
16:00 +27°C° 1.8 mm 1 m/S 711 mmHg 92%
17:00 +24°C° 1.8 mm 0 m/S 710 mmHg 94%
18:00 +23°C° 1.6 mm 0 m/S 711 mmHg 95%
19:00 +22°C° 1.6 mm 0 m/S 711 mmHg 96%
20:00 +21°C° 1.6 mm 0 m/S 712 mmHg 97%
21:00 +21°C° 0.6 mm 0 m/S 712 mmHg 97%
22:00 +21°C° 0.6 mm 0 m/S 712 mmHg 98%
23:00 +20°C° 0.6 mm 0 m/S 712 mmHg 98%

12 Juli, Sonntag

Zeit Temperatur Niederschläge Wind Luftdruck Luftfeuchtigkeit
00:00 +20°C° 0.5 mm 0 m/S 712 mmHg 98%
01:00 +20°C° 0.5 mm 0 m/S 712 mmHg 99%
02:00 +20°C° 0.5 mm 0 m/S 711 mmHg 99%
03:00 +20°C° 0.3 mm 0 m/S 711 mmHg 99%
04:00 +20°C° 0.3 mm 0 m/S 712 mmHg 99%
05:00 +20°C° 0.3 mm 0 m/S 712 mmHg 99%
06:00 +21°C° 0.1 mm 0 m/S 712 mmHg 98%
07:00 +21°C° 0.1 mm 0 m/S 712 mmHg 97%
08:00 +22°C° 0.1 mm 0 m/S 713 mmHg 95%
09:00 +23°C° 0.6 mm 0 m/S 713 mmHg 93%
10:00 +24°C° 0.6 mm 0 m/S 713 mmHg 90%
11:00 +27°C° 0.6 mm 1 m/S 713 mmHg 88%
12:00 +27°C° 1 mm 1 m/S 712 mmHg 87%
13:00 +27°C° 1 mm 1 m/S 712 mmHg 87%
14:00 +27°C° 1 mm 1 m/S 711 mmHg 87%
15:00 +27°C° 0.7 mm 1 m/S 711 mmHg 89%
16:00 +26°C° 0.7 mm 1 m/S 711 mmHg 91%
17:00 +26°C° 0.7 mm 1 m/S 711 mmHg 93%
18:00 +23°C° 0.3 mm 0 m/S 711 mmHg 95%
19:00 +22°C° 0.3 mm 0 m/S 711 mmHg 96%
20:00 +21°C° 0.3 mm 0 m/S 712 mmHg 98%
21:00 +20°C° 0 mm 0 m/S 712 mmHg 98%
22:00 +20°C° 0 mm 0 m/S 713 mmHg 98%
23:00 +20°C° 0 mm 0 m/S 713 mmHg 99%
Mehr zeigen